Regional Weather Roundup
Issued by NWS Sioux Falls, SD

Home | Current Version | Previous Version | Text Only | Print | Product List | Glossary On
Versions: 1 2 3 4 5 6 7 8 9 10 11 12 13 14 15 16 17 18 19 20 21 22 23 24 25 26 27 28 29 30 31 32 33 34 35 36 37 38 39 40 41 42 43 44 45 46 47 48 49 50
000
ASUS43 KFSD 290610
RWRFSD

WEATHER ROUNDUP FOR SE SOUTH DAKOTA/SW MINNESOTA/NW IOWA
NATIONAL WEATHER SERVICE SIOUX FALLS SD
1200 AM CST MON DEC 29 2014

NOTE: "FAIR" INDICATES FEW OR NO CLOUDS BELOW 12,000 FEET WITH NO
SIGNIFICANT WEATHER AND OR OBSTRUCTIONS TO VISIBILITY.


SDZ038>040-050-052>070-290700-
SOUTHEAST SOUTH DAKOTA

CITY           SKY/WX    TMP DP  RH WIND       PRES   REMARKS
CHAMBERLAIN    CLOUDY    11   7  85 NE12      30.30R WCI  -4
6HR MIN TEMP:  11; 6HR MAX TEMP:  19;

HURON          LGT SNOW  10   6  84 NE12      30.36R FOG     WCI  -5
6HR MIN TEMP:  10; 6HR MAX TEMP:  17; 6HR PCP:  0.01;

MADISON        FLURRIES  10  10 100 NE13      30.30R WCI  -5
MITCHELL       LGT SNOW  16  13  88 NE14      30.34R FOG     WCI   2
6HR MIN TEMP:  16; 6HR MAX TEMP:  22; 6HR PCP:  0.01;

SIOUX FALLS    LGT SNOW  13   9  84 NE13      30.31R FOG     WCI  -2
6HR MIN TEMP:  13; 6HR MAX TEMP:  20; 6HR PCP:  0.02;

WINNER         LGT SNOW  18  14  84 NE12      30.24S WCI   5
YANKTON        MOCLDY    19  16  86 NE14      30.29S WCI   6
$$

MNZ071-072-080-081-089-090-097-098-290700-
SOUTHWEST MINNESOTA

CITY           SKY/WX    TMP DP  RH WIND       PRES   REMARKS
FAIRMONT       CLOUDY    18  12  79 N7        30.31R WCI   8
JACKSON        LGT SNOW  21  18  86 NE9       30.30R WCI  11
LUVERNE        LGT SNOW  18  12  79 N8        30.32R WCI   7
MARSHALL       CLOUDY    10   3  72 N15       30.37R WCI  -6
6HR MIN TEMP:  10; 6HR MAX TEMP:  16;

MONTEVIDEO     CLOUDY    12   7  79 N6        30.42R WCI   3
PIPESTONE      LGT SNOW  10   9  92 NE10      30.29R WCI  -3
REDWOOD FALLS  CLOUDY    15   5  64 N7        30.37R WCI   5
TRACY          CLOUDY    12   9  85 N12       30.35R WCI  -2
WINDOM         CLOUDY    18  12  79 N7        30.31R WCI   8
WORTHINGTON    CLOUDY    16 -27  13 N12       30.30R WCI   3
$$

IAZ001>003-012>014-020>022-031-032-NEZ013-014-SDZ071-290700-
NORTHWEST IOWA

CITY           SKY/WX    TMP DP  RH WIND       PRES   REMARKS
CHEROKEE       CLOUDY    19  18  95 NE8       30.27S WCI   9
DENISON        CLOUDY    21  19  93 NE10      30.22R WCI  10
ESTHERVILLE    CLOUDY    17  15  92 N10       30.29R FOG     WCI   5
LE MARS        LGT SNOW  19  18  93 NE12      30.28R WCI   7
ORANGE CITY    LGT SNOW  21  18  86 NE8       30.26R WCI  12
SHELDON        FLURRIES  19  18  93 NE13      30.27R WCI   7
SIOUX CITY     LGT SNOW  22  17  81 NE7       30.28R WCI  13
6HR MIN TEMP:  20; 6HR MAX TEMP:  23; 6HR PCP: TRACE;

SPENCER        CLOUDY    19  15  84 NE10      30.29R WCI   7
6HR MIN TEMP:  18; 6HR MAX TEMP:  20;

STORM LAKE     CLOUDY    18  16  93 NE17      30.25S FOG     WCI   2
$$

ABBREVIATIONS USED IN REMARKS
   TC - TEMPERATURE IN CELSIUS
  WCI - WIND CHILL INDEX
   HX - HEAT INDEX
  VSB - VISIBILITY




USA.gov is the U.S. government's official web portal to all federal, state and local government web resources and services.